User: anonymous   Login
Location: Unspecified
(0.0000°N, 0.0000°E)
Time: 19:29:57
(UTC+00:00)
Language:

STARLINK-30532 - Orbit

View from above orbital plane
View from above orbital plane
View from above satellite
View from above satellite

Ground track
Ground track

The orbit is defined by the following mean orbital elements,

1 58070U          26143.97498252 +.00000000 +00000-0 +27515-3 0 00008
2 58070  43.0019 321.8941 0001530 266.7027  93.3649 15.27595494    01
Epoch (UTC): 23 May 2026 23:23:58
Eccentricity: 0.0001530
inclination: 43.0019°
perigee height: 482 km
apogee height: 484 km
right ascension of ascending node: 321.8941°
argument of perigee: 266.7027°
revolutions per day: 15.27595494
mean anomaly at epoch: 93.3649°

The dashed part of the orbit path shows where the satellite is in the earth's shadow,  

DLR